Regional Weather Roundup
Issued by NWS

Home | Current Version | Previous Version | Graphics & Text | Print | Product List | Glossary On
Versions: 1 2 3 4 5 6 7 8 9 10 11 12 13 14 15 16 17 18 19 20 21 22 23 24 25 26 27 28 29 30 31 32 33 34 35 36 37 38 39 40 41 42 43 44 45 46 47 48 49 50
000
ASUS43 KDTX 280701
RWRMI
MICHIGAN HOURLY REGIONAL WEATHER ROUNDUP
NATIONAL WEATHER SERVICE DETROIT/PONTIAC MI
300 AM EDT FRI APR 28 2017

NOTE: "FAIR" INDICATES FEW OR NO CLOUDS BELOW 12,000 FEET WITH NO
SIGNIFICANT WEATHER AND/OR OBSTRUCTION TO VISIBILITY.

MIZ047>049-052>055-059>063-066>070-074>076-081>083-280800-
SOUTHEAST LOWER MICHIGAN

CITY           SKY/WX    TMP DP  RH WIND       PRES   REMARKS
ADRIAN         CLOUDY    47  37  68 W12       29.90R
ALMA           CLOUDY    44  36  73 SW12G20   29.85S
ANN ARBOR      CLOUDY    49  38  65 SW13      29.87S
BAD AXE        CLOUDY    46  37  70 W14G25    29.84R
CARO           CLOUDY    47  36  67 SW18G26   29.84S
DETROIT CITY   PTCLDY    50  38  63 W12       29.88R
DETROIT        CLOUDY    50  37  61 W18       29.89R
FLINT          CLOUDY    48  38  68 W18G25    29.86R
GROSSE ILE     PTCLDY    49  38  64 W15G21    29.88S
HILLSDALE      MOCLDY    46  36  66 W8G16     29.88S
HOWELL         CLOUDY    48  38  70 W14G20    29.86S

CITY           SKY/WX    TMP DP  RH WIND       PRES   REMARKS
JACKSON        PTCLDY    46  37  71 W7        29.88R
LAMBERTVILLE   CLOUDY    49  39  68 W8        29.90R
LANSING        CLOUDY    47  34  60 W21G29    29.87R
LAPEER         CLOUDY    49  38  66 W10       29.86R
MASON          CLOUDY    47  38  72 W7        29.87S
MONROE         CLOUDY    50  38  65 W10G22    29.89R
MT. CLEMENS    MOCLDY    50  38  62 W13       29.86R
PONTIAC        CLOUDY    49  37  63 W15G24    29.85S
PORT HOPE        N/A     47  37  68 SW10G16   29.81R
PORT HURON     CLOUDY    50  36  57 W10G18    29.87R
TRI CITIES     CLOUDY    46  37  71 SW13      29.84S
MIDLAND        CLOUDY    44  35  69 SW14G21   29.82F
TROY           MOCLDY    50  34  54 W9        29.88S
SAGINAW HB     CLOUDY    46  34  61 SW17G33   29.83F
$$
MIZ043>046-050>051-056>058-064>065-071>073-077>080-280800-
SOUTHWEST LOWER MICHIGAN

CITY           SKY/WX    TMP DP  RH WIND       PRES   REMARKS
BATTLE CREEK   PTCLDY    43  36  76 W10       29.88R
BENTON HARBOR  CLEAR     42  36  79 W7        29.88F
BIG RAPIDS     CLOUDY    40  33  76 SW10G23   29.80S WCI  34
COLDWATER      CLEAR     45  38  75 SW7       29.89S
FREMONT        CLOUDY    41  33  74 W10G20    29.83S
HOLLAND        CLOUDY    45  35  68 W18G25    29.86F
GRAND RAPIDS   CLOUDY    44  36  73 SW16G24   29.85S
IONIA          CLOUDY    44  34  68 W17G23    29.85S
KALAMAZOO      CLEAR     43  34  70 W7        29.89R
LUDINGTON      CLOUDY    41  37  84 SW14G24   29.81R
MARSHALL       CLEAR     44  37  78 SW7       29.88S
MOUNT PLEASANT CLOUDY    43  34  72 SW8G16    29.82S
MUSKEGON       CLOUDY    43  37  79 SW13      29.84F
SOUTH HAVEN    CLOUDY    44  36  73 W8        29.89R
$$
MIZ016>042-280800-
NORTHERN LOWER MICHIGAN

CITY           SKY/WX    TMP DP  RH WIND       PRES   REMARKS
ALPENA         CLOUDY    44  36  73 SW10      29.76R
BEAVER ISLAND  CLOUDY    38  32  80 W16G24    29.72R WCI  28
BELLAIRE       CLOUDY    42  37  85 SW5       29.75S
CADILLAC       CLOUDY    39  34  82 SW17G26   29.76S WCI  30
CHARLEVOIX     LGT RAIN  38  38  97 W14       29.77R WCI  30
FRANKFORT      DRIZZLE   39  36  87 SW7       29.77S WCI  34
GRAYLING       LGT RAIN  40  37  88 SW8       29.76R WCI  34
HARBOR SPRINGS HVY RAIN  37  37  99 W12       29.73R WCI  30
HOUGHTON LAKE  CLOUDY    41  36  82 SW16G26   29.78R
MANISTEE       CLOUDY    41  36  82 SW14      29.79S
OSCODA         CLOUDY    45  37  73 SW13G18   29.78S
PELLSTON       CLOUDY    39  34  82 W8        29.73R WCI  33
ROGERS CITY    CLOUDY    43  34  70 SW8       29.75S
TRAVERSE CITY  CLOUDY    42  37  82 SW7G18    29.75R
$$
MIZ007>008-015-280800-
EASTERN UPPER MICHIGAN

CITY           SKY/WX    TMP DP  RH WIND       PRES   REMARKS
KINROSS        CLOUDY    37  31  78 SW6       29.70R WCI  32
MACKINAC ISLAN CLOUDY    38  35  88 SW14G22   29.71S WCI  30
NEWBERRY       CLOUDY    33  32  94 SW9       29.68R WCI  26
S. S. MARIE    CLOUDY    36  33  89 S3        29.69S
MUNISING         N/A     32  30  92 S3        29.69R
$$
MIZ004>006-011>014-085-280800-
CENTRAL UPPER MICHIGAN

CITY           SKY/WX    TMP DP  RH WIND       PRES   REMARKS
MANISTIQUE     CLOUDY    33  32  96 W6        29.71R WCI  28
ESCANABA       CLOUDY    32  31  96 SW7       29.73R WCI  26
MENOMINEE      CLOUDY    35  30  82 W5        29.75S WCI  31
SAWYER-GWINN   CLOUDY    29  25  85 W14G23    29.67R WCI  19
$$
MIZ001>003-009>011-084-280800-
WESTERN UPPER MICHIGAN

CITY           SKY/WX    TMP DP  RH WIND       PRES   REMARKS
IRON MOUNTAIN  CLOUDY    31  23  72 W8        29.69R WCI  23
HOUGHTON       LGT SNOW  30  25  81 W17G24    29.61R WCI  18
COPPER HARBOR    N/A     30  26  85 VRB6      29.61R WCI  24
IRONWOOD       CLOUDY    27  25  92 W13       29.68S WCI  16
$$

ABBREVIATIONS USED IN REMARKS
   TC - TEMPERATURE IN CELSIUS
  WCI - WIND CHILL INDEX
   HX - HEAT INDEX
  VSB - VISIBILITY





USA.gov is the U.S. government's official web portal to all federal, state and local government web resources and services.